www.pogodaiklimat.ru

Погода и климат >> Архив погоды >> Россия >> Якутия >> Оленек


ПОГОДА в Оленеке

АРХИВ ПОГОДЫ в Оленеке

Время (UTC), дата Ветер
(напр.,м/с)
 
Видим.   Явления Облачность Т
(С)
Тd
(С)
f
(%)
Тe
(С)
Тes
(С)
Комфортность P
(гПа)
Po
(гПа)
Тmin
(С)
Tmax
(С)
R
(мм)
R24
(мм)
S
(см)
00 11.01 СЗ 1 10 км 4/0
[Ci fib]
-50.9 -53.5 74 -57 -57 опасность
обморожения
1028.0 993.8 -51.0 40
03 11.01 штиль 0 4000 м дымка 4/0
[Ac As Ci fib]
-49.6 -53.5 63 -50 -50 опасность
обморожения
1027.8 993.8
06 11.01 СЗ 3 4000 м дымка 3/0
[Ci fib]
-49.0 -52.2 69 -62 -62 опасность
обморожения
1027.6 993.8
09 11.01 З 3 4000 м дымка 3/0
[Ci fib]
-48.8 -52.2 67 -62 -62 опасность
обморожения
1027.6 993.8
12 11.01 СЗ 2 4000 м дымка ясно -46.5 -50.1 66 -57 -57 опасность
обморожения
1027.2 993.7 -45.4
15 11.01 СЗ 2 н/о н/о -46.2 -50.4 62
18 11.01 штиль 0 н/о н/о -44.6 -48.8 63
21 11.01 З 1 н/о н/о -43.2 -47.3 64
00 12.01 З 1 4000 м дымка 3/0
[Ci sp]
-41.5 -44.3 74 -47 -47 опасность
обморожения
1022.0 989.5 -46.6 40
03 12.01 З 1 4000 м дымка ясно -42.1 -44.8 75 -48 -48 опасность
обморожения
1021.2 988.7
06 12.01 СЗ 1 10 км дымка ясно -41.7 -42.5 92 -47 -47 опасность
обморожения
1020.0 987.5
09 12.01 С 1 4000 м дымка ясно -41.6 -44.3 75 -47 -47 опасность
обморожения
1018.9 986.5
12 12.01 штиль 0 н/о н/о -42.4 -46.6 63 -42 -42 опасность
обморожения
1017.9 985.4 -41.2
15 12.01 штиль 0 н/о н/о -44.1 -48.2 63 -44 -44 опасность
обморожения
1016.2 983.6
18 12.01 В 1 н/о н/о -44.9 -49.1 63 -51 -51 опасность
обморожения
1015.0 982.3
21 12.01 В 1 н/о н/о -45.3 -49.6 62 -51 -51 опасность
обморожения
1013.5 980.7
00 13.01 В 2 н/о н/о -46.6 -50.9 61 -57 -57 опасность
обморожения
1012.4 979.5 -48.3
03 13.01 В 1 н/о н/о -48.7 -53.0 61 -55 -55 опасность
обморожения
1011.6 978.4 -48.7
06 13.01 В 2 н/о н/о -48.6 -52.9 61 -59 -59 опасность
обморожения
1011.6 978.4
09 13.01 В 4 н/о н/о -45.1 -49.3 62 -60 -60 опасность
обморожения
1011.6 978.4
12 13.01 В 3 н/о н/о -43.1 -47.3 63 -55 -55 опасность
обморожения
1008.4 976.2
15 13.01 В 3 н/о н/о -38.3 -42.3 66 -50 -50 опасность
обморожения
1006.8 975.2
18 13.01 В 3 н/о н/о -37.5 -41.5 66 -49 -49 опасность
обморожения
1006.2 974.7
21 13.01 В 4 н/о н/о -38.5 -42.6 65 -52 -52 опасность
обморожения
1006.5 974.9
00 14.01 В 3 н/о н/о -38.9 -43.0 65 -50 -50 опасность
обморожения
1007.0 975.3 -43.1
03 14.01 В 4 н/о н/о -39.4 -43.5 65 -53 -53 опасность
обморожения
1007.5 975.7
06 14.01 В 4 н/о н/о -40.0 -44.1 65 -54 -54 опасность
обморожения
1007.9 976.1
09 14.01 В 3 н/о н/о -40.7 -44.8 64 -52 -52 опасность
обморожения
1009.0 977.1
12 14.01 В 2 н/о н/о -41.7 -45.8 64 -51 -51 опасность
обморожения
1009.6 977.5 -38.9
15 14.01 В 1 н/о н/о -42.0 -46.2 63 -47 -47 опасность
обморожения
1009.8 977.6
18 14.01 СВ 1 н/о н/о -42.4 -46.5 64 -48 -48 опасность
обморожения
1009.7 977.5
21 14.01 штиль 0 н/о н/о -42.1 -46.3 63 -42 -42 опасность
обморожения
1010.1 977.9
00 15.01 штиль 0 10 км в посл. час снег 10/0
[Cs]
-43.1 -45.5 77 -43 -43 опасность
обморожения
1010.6 978.2 -43.1 0.4 41
03 15.01 штиль 0 4000 м слабый снег 10/0
[Ac As Cs]
-43.6 -46.1 76 -44 -44 опасность
обморожения
1010.7 978.3 -44.0
06 15.01 штиль 0 4000 м в посл. час снег 10/0
[Cs]
-44.8 -48.3 68 -45 -45 опасность
обморожения
1010.9 978.3
09 15.01 СЗ 1 4000 м дымка 8/0
[Ac As Ci fib]
-44.9 -48.3 68 -51 -51 опасность
обморожения
1011.6 979.0
12 15.01 СЗ 1 н/о н/о -45.6 -49.8 62 -51 -51 опасность
обморожения
1012.4 979.7 -43.1
15 15.01 СЗ 1 н/о н/о -47.2 -51.4 62 -53 -53 опасность
обморожения
1012.4 979.5
18 15.01 штиль 0 н/о н/о -46.2 -50.5 61 -46 -46 опасность
обморожения
1012.4 979.5
21 15.01 штиль 0 н/о н/о -47.6 -51.9 61 -48 -48 опасность
обморожения
1012.4 979.5
00 16.01 В 1 1000 м в посл. час снег 10/0
[Cs]
-47.5 -51.1 66 -54 -54 опасность
обморожения
1013.5 980.4 -47.8 0.4 42
03 16.01 штиль 0 4000 м дымка 10/0
[Ci sp]
-48.3 -51.1 72 -48 -48 опасность
обморожения
1014.3 981.1 -48.3
06 16.01 штиль 0 4000 м дымка 10/0
[Cs]
-48.3 -51.1 72 -48 -48 опасность
обморожения
1014.7 981.5
09 16.01 штиль 0 20 км 10/0
[Cs]
-48.6 -52.2 66 -49 -49 опасность
обморожения
1016.1 982.8
12 16.01 штиль 0 н/о н/о -49.8 -54.2 60 -50 -50 опасность
обморожения
1017.1 983.6 -47.3
15 16.01 штиль 0 н/о н/о -50.3 -54.7 59 -50 -50 опасность
обморожения
1017.5 983.9
18 16.01 СЗ 1 н/о н/о -50.2 -54.6 59 -57 -57 опасность
обморожения
1017.5 983.9
21 16.01 В 1 н/о н/о -51.4 -55.8 59 -58 -58 опасность
обморожения
1017.5 983.9
00 17.01 В 1 4000 м дымка 4/0
[Ci fib]
-49.7 -52.2 75 -56 -56 опасность
обморожения
1020.8 987.2 -51.3 0.4 41
03 17.01 СВ 2 20 км 3/0
[Ci fib]
-48.6 -52.2 66 -59 -59 опасность
обморожения
1021.9 988.2
06 17.01 штиль 0 4000 м дымка 5/0
[Ci fib]
-48.5 -51.1 74 -49 -49 опасность
обморожения
1023.4 989.7
09 17.01 СВ 2 20 км 3/0
[Ci fib]
-47.8 -51.1 68 -58 -58 опасность
обморожения
1024.5 991.0
12 17.01 штиль 0 н/о н/о -48.3 -52.7 60 -48 -48 опасность
обморожения
1025.6 992.1
15 17.01 СВ 1 н/о н/о -48.2 -52.6 60 -54 -54 опасность
обморожения
1026.9 993.3
18 17.01 З 1 н/о н/о -49.3 -53.7 60 -56 -56 опасность
обморожения
1028.4 994.6
21 17.01 З 1 н/о н/о -51.9 -56.3 59 -58 -58 опасность
обморожения
1030.1 995.9

 

Местоположение метеостанции Оленек (Якутия, Россия): широта 68.50 долгота 112.40 высота над уровнем моря 220 м.

В архиве по умолчанию представлена погода в Оленеке за последнюю неделю. Архивные данные за месяц целиком и за предыдущие месяцы, начиная с января 2011 года, Вы можете получить, выбрав интересующий диапазон дат из раскрывающегося списка и нажав кнопку "Ввод!".

Внимание! Время в таблицах - всемирное. Для получения местного времени необходимо прибавить поправку, которая в Оленеке равна 9 ч.

Смотрите также архив погоды в соседних городах и на ближайших метеорологических станциях:

Погода в Джалинде (Якутия, Россия) (191 км)
Погода в Полярном (Якутия, Россия) (197 км)
Погода в Ярольине (Якутия, Россия) (224 км)
Погода в Сухане (Якутия, Россия) (240 км)
Погода в Шелагонцах (Якутия, Россия) (262 км)
Погода в Эйке (Якутия, Россия) (349 км)
Погода в Саскылахе (Якутия, Россия) (391 км)
Погода в Хабардино (Якутия, Россия) (434 км)
Погода в Джарджане (Якутия, Россия) (470 км)
Погода в Жиганске (Якутия, Россия) (498 км)

Пояснения к столбцам:

Ветер - указаны скорость ветра в м/с - средняя за 10 мин, порывы в срок и между сроками (в фигурных скобках) и направление, откуда дует ветер: С - северный, СВ - северо-восточный, В - восточный, ЮВ - юго-восточный, Ю - южный, ЮЗ - юго-западный, З - западный, СЗ - северо-западный.
Видимость - горизонтальная дальность видимости в метрах или километрах. При видимости от 1 до 10 км при отсутствии осадков обычно наблюдается дымка, при ухудшении видимости до 1 км и менее - туман. В сухую погоду видимость может ухудшаться дымом, пылью или мглою.
Явления - указаны атмосферные явления, наблюдавшиеся в срок или в последний час перед сроком; фигурными скобками обозначены явления, наблюдавшиеся между сроками (за 1-3 часа до срока); квадратными скобками обозначены град или гололедные отложения с указанием их диаметра в мм.
Облачность - указаны через наклонную черту общая и нижняя облачность в баллах и высота нижней границы облаков в метрах; квадратными скобками обозначены формы облаков: Ci - перистые, Cs - перисто-слоистые, Cc - перисто-кучевые, Ac - высококучевые, As - высокослоистые, Sc - слоисто-кучевые, Ns - слоисто-дождевые, Cu - кучевые, Cb - кучево-дождевые. Подробнее классификацию облаков см. в Атласе облаков (PDF).
T - Температура воздуха - температура, измеренная на высоте 2 м над землей.
Td - Температура точки росы - температура, при понижении до которой содержащийся в воздухе водяной пар достигнет насыщения.
f - Относительная влажность воздуха - влажноcть воздуха, измеренная на высоте 2 м над землей.
Te - Эффективная температура - температура, которую ощущает одетый по сезону человек в тени. Характеристика душности погоды. При расчете учитывается влияние влажности воздуха и скорости ветра на теплоощущения человека.
Tes - Эффективная температура на солнце - температура, которую ощущает человек, с поправкой на солнечный нагрев. Характеристика знойности погоды. Зависит от высоты солнца над горизонтом, облачности и скорости ветра. Ночью, в пасмурную погоду, а также при ветре 12 м/с и более поправка равна нулю.
P - Атмосферное давление - приведенное к уровню моря атмосферное давление.
Po - Атмосферное давление - измеренное на уровне метеостанции атмосферное давление.
Tmin - Минимальная температура - минимум температуры воздуха на высоте 2 м над землей.
Tmax - Максимальная температура - максимум температуры воздуха на высоте 2 м над землей.
R - Количество осадков - Количество выпавших осадков за период времени, мм. При наведении курсора мыши на число - период времени, за который выпало указанное количество осадков.
R24 - Количество осадков - Количество выпавших осадков за 24 часа, мм.
S - Снежный покров - Высота снежного покрова, см. При наведении курсора мыши на число - состояние снежного покрова и степень покрытия местности в баллах.